Location: Chapel Hill
(35.9134°N, 79.0560°W)
Time: 16:01:40
(UTC-04:00)

Courier 1B Rocket - Visible Passes

Search period start: 18 June 2025 00:00
Search period end: 28 June 2025 00:00
Orbit: 920 x 1201 km, 28.2° (Epoch: 18 June)

Date Brightness Start Highest point End Pass type
(mag) Time Alt. Az. Time Alt. Az. Time Alt. Az.
18 Jun 5.5 03:26:48 36° SSE 03:26:48 36° SSE 03:31:27 10° ESE visible
18 Jun 6.1 05:13:41 10° WSW 05:18:23 22° SSW 05:23:00 10° SSE visible
18 Jun 6.7 22:33:25 10° SSW 22:35:47 17° S 22:35:47 17° S visible
19 Jun 7.0 02:29:57 13° ESE 02:29:57 13° ESE 02:30:35 10° ESE visible
19 Jun 5.7 04:16:21 27° SW 04:17:27 28° SSW 04:22:41 10° SE visible
19 Jun 6.6 21:33:17 10° S 21:37:33 16° SSE 21:39:41 14° SE visible
19 Jun 6.8 23:24:04 10° SW 23:26:09 18° SW 23:26:09 18° SW visible
20 Jun 6.3 03:19:45 21° SE 03:19:45 21° SE 03:22:06 10° SE visible
20 Jun 6.3 05:06:11 12° SW 05:09:03 16° SSW 05:12:42 10° S visible
20 Jun 6.0 22:23:08 10° SW 22:29:18 28° SSE 22:29:51 28° SSE visible
21 Jun 7.2 00:15:37 10° WSW 00:16:17 13° WSW 00:16:17 13° WSW visible
21 Jun 6.2 04:09:49 20° S 04:09:49 20° S 04:12:51 10° SSE visible
21 Jun 6.4 21:22:29 10° SSW 21:28:08 23° SSE 21:33:19 11° ESE visible
21 Jun 5.8 23:14:21 10° WSW 23:19:44 36° SSW 23:19:44 36° SSW visible
22 Jun 6.7 05:00:06 11° SSW 05:00:06 11° SSW 05:01:02 10° SSW visible
22 Jun 5.8 22:13:13 10° SW 22:19:57 35° SSE 22:22:57 25° SE visible
23 Jun 6.5 00:06:11 10° WSW 00:09:20 25° WSW 00:09:20 25° WSW visible
23 Jun 6.1 21:12:16 10° SW 21:18:44 30° SSE 21:24:56 10° ESE visible
23 Jun 5.4 23:04:48 10° WSW 23:11:53 45° S 23:12:18 44° SSE visible
24 Jun 7.3 00:58:19 10° WSW 00:58:40 11° WSW 00:58:40 11° WSW visible
24 Jun 5.7 22:03:31 10° WSW 22:10:37 41° S 22:15:04 21° ESE visible
24 Jun 6.0 23:56:49 10° WSW 00:01:26 35° SW 00:01:26 35° SW visible
25 Jun 6.0 21:02:23 10° SW 21:09:20 37° SSE 21:16:02 10° ESE visible
25 Jun 5.5 22:55:22 10° WSW 23:02:35 47° S 23:04:03 42° SSE visible
26 Jun 7.1 00:49:06 10° WSW 00:50:24 15° WSW 00:50:24 15° WSW visible
26 Jun 5.7 21:53:58 10° WSW 22:01:17 46° S 22:06:33 18° ESE visible
26 Jun 5.9 23:47:31 10° WSW 23:52:54 38° SW 23:52:54 38° SW visible
27 Jun 5.6 22:46:00 10° WSW 22:53:16 47° S 22:55:18 38° SE visible
